GFSFLT1_prec_precacc24_132.txt.gz
Total_Precipitation_Accumulation
0.00 0.00 0.00 0.00 0.00 0.00 0.00 0.00 0.00 0.00 0.00 0.00 0.01 0.02 0.04 0.05 0.08 0.30 0.40 0.53 0.70 0.93 1.05 1.00 1.06 1.01 0.86 0.74 0.45 0.26 0.21 0.20
0.00 0.00 0.00 0.00 0.00 0.00 0.00 0.00 0.00 0.00 0.00 0.00 0.00 0.00 0.00 0.05 0.07 0.06 0.24 0.30 0.44 0.53 0.89 1.56 1.34 0.73 0.51 0.71 0.87 0.63 0.44 0.47
0.00 0.00 0.00 0.00 0.00 0.00 0.00 0.00 0.00 0.00 0.00 0.00 0.00 0.00 0.00 0.00 0.03 0.09 0.10 0.11 0.17 0.38 0.44 0.62 1.00 1.02 0.83 0.71 0.79 0.87 0.71 0.71
0.00 0.00 0.00 0.00 0.00 0.00 0.00 0.00 0.00 0.00 0.00 0.00 0.00 0.00 0.01 0.02 0.01 0.02 0.04 0.09 0.14 0.19 0.26 0.31 0.50 0.97 0.89 0.59 0.51 0.67 0.76 0.79
0.00 0.00 0.00 0.00 0.00 0.00 0.00 0.00 0.00 0.00 0.00 0.00 0.00 0.00 0.00 0.00 0.00 0.00 0.01 0.12 0.19 0.24 0.26 0.29 0.39 0.40 0.63 0.63 0.53 0.50 0.55 0.57
0.00 0.00 0.00 0.00 0.00 0.00 0.00 0.00 0.00 0.00 0.00 0.00 0.00 0.00 0.00 0.00 0.00 0.00 0.02 0.04 0.16 0.34 0.38 0.45 0.58 0.81 0.41 0.71 0.74 0.69 0.62 0.52
0.00 0.00 0.00 0.00 0.00 0.00 0.00 0.00 0.00 0.00 0.00 0.00 0.00 0.00 0.00 0.00 0.00 0.01 0.04 0.07 0.12 0.15 0.18 0.28 0.34 0.51 0.69 0.78 1.05 0.92 0.96 0.78
0.00 0.00 0.00 0.01 0.02 0.01 0.01 0.00 0.00 0.00 0.00 0.00 0.00 0.00 0.00 0.00 0.00 0.01 0.04 0.08 0.09 0.05 0.15 0.17 0.16 0.15 0.35 0.65 0.94 1.17 1.50 1.58
0.00 0.01 0.05 0.06 0.07 0.06 0.06 0.05 0.03 0.01 0.00 0.00 0.00 0.01 0.02 0.01 0.01 0.01 0.02 0.05 0.08 0.10 0.15 0.25 0.25 0.32 0.38 0.40 0.53 0.63 0.73 1.06
0.01 0.01 0.05 0.08 0.09 0.09 0.11 0.13 0.13 0.10 0.06 0.03 0.03 0.03 0.04 0.03 0.02 0.04 0.03 0.05 0.14 0.16 0.22 0.26 0.26 0.22 0.31 0.31 0.34 0.42 0.49 0.49
0.08 0.05 0.04 0.09 0.08 0.08 0.15 0.17 0.19 0.20 0.19 0.16 0.08 0.07 0.11 0.11 0.09 0.09 0.11 0.13 0.18 0.28 0.34 0.33 0.36 0.34 0.36 0.41 0.42 0.41 0.51 0.43
0.22 0.33 0.25 0.28 0.37 0.27 0.28 0.36 0.36 0.29 0.26 0.26 0.22 0.18 0.24 0.25 0.25 0.20 0.22 0.35 0.36 0.26 0.31 0.55 0.46 0.57 0.54 0.47 0.50 0.45 0.42 0.43
0.21 0.72 0.99 0.90 0.91 0.99 0.67 0.41 0.40 0.40 0.33 0.31 0.38 0.44 0.41 0.41 0.54 0.53 0.52 0.56 0.57 0.48 0.50 0.45 0.40 0.38 0.52 0.43 0.31 0.35 0.39 0.42
0.16 0.38 0.65 1.18 0.66 0.94 0.69 0.60 0.68 0.66 0.59 0.63 0.74 0.75 0.65 0.55 0.63 0.72 0.72 0.90 0.98 1.03 1.13 1.10 0.82 0.54 0.46 0.47 0.40 0.31 0.26 0.32
0.17 0.19 0.25 0.31 0.41 0.93 1.72 0.66 0.71 0.83 0.86 0.70 0.78 0.95 1.03 0.99 0.81 0.69 0.66 0.71 0.81 0.93 0.82 0.72 0.63 0.55 0.40 0.34 0.43 0.50 0.43 0.46
0.17 0.20 0.21 0.21 0.20 0.24 0.41 0.41 0.77 1.17 1.02 0.99 1.05 1.00 0.84 0.86 0.80 0.65 0.51 0.72 0.80 0.72 0.59 0.68 0.65 0.59 0.65 0.52 0.55 0.67 0.61 0.51
0.14 0.13 0.10 0.09 0.10 0.16 0.13 0.18 0.41 0.60 0.88 1.18 0.86 1.15 1.23 0.75 0.76 0.74 0.72 0.75 0.78 0.99 0.78 0.73 0.90 0.93 1.15 1.18 0.89 0.69 0.62 0.53
0.07 0.08 0.07 0.08 0.08 0.07 0.09 0.13 0.26 0.26 0.30 1.04 1.25 1.21 2.16 1.58 0.86 0.92 0.82 1.03 0.96 0.88 1.00 0.94 0.99 1.10 1.28 1.34 1.33 0.99 0.94 0.91
0.04 0.05 0.04 0.04 0.02 0.02 0.01 0.00 0.05 0.14 0.08 0.35 0.80 0.79 1.51 2.41 1.79 1.52 1.50 1.07 0.89 0.65 0.73 0.81 0.83 1.33 1.34 1.74 1.89 1.71 1.29 1.12

GFSFLT1_prec_precacc24_138.txt.gz
Total_Precipitation_Accumulation
0.00 0.00 0.00 0.00 0.00 0.00 0.00 0.00 0.00 0.00 0.00 0.00 0.00 0.00 0.03 0.05 0.08 0.30 0.40 0.53 0.70 0.93 1.04 1.00 1.06 1.00 0.86 0.76 0.70 0.76 0.85 0.63
0.00 0.00 0.00 0.00 0.00 0.00 0.00 0.00 0.00 0.00 0.00 0.00 0.00 0.00 0.00 0.05 0.07 0.06 0.24 0.30 0.44 0.53 0.88 1.55 1.34 0.73 0.50 0.71 0.88 0.71 0.48 0.53
0.00 0.00 0.00 0.00 0.00 0.00 0.00 0.00 0.00 0.00 0.00 0.00 0.00 0.00 0.00 0.00 0.03 0.09 0.09 0.11 0.17 0.37 0.43 0.62 0.99 1.02 0.82 0.71 0.79 0.87 0.71 0.69
0.00 0.00 0.00 0.00 0.00 0.00 0.00 0.00 0.00 0.00 0.00 0.00 0.00 0.00 0.00 0.00 0.00 0.01 0.04 0.09 0.14 0.19 0.26 0.30 0.50 0.96 0.88 0.58 0.50 0.67 0.75 0.78
0.00 0.00 0.00 0.00 0.00 0.00 0.00 0.00 0.00 0.00 0.00 0.00 0.00 0.00 0.00 0.00 0.00 0.00 0.01 0.10 0.18 0.24 0.26 0.29 0.38 0.39 0.63 0.61 0.51 0.50 0.55 0.56
0.00 0.00 0.00 0.00 0.00 0.00 0.00 0.00 0.00 0.00 0.00 0.00 0.00 0.00 0.00 0.00 0.00 0.00 0.01 0.03 0.14 0.30 0.38 0.44 0.57 0.80 0.41 0.70 0.72 0.67 0.62 0.53
0.00 0.00 0.00 0.00 0.00 0.00 0.00 0.00 0.00 0.00 0.00 0.00 0.00 0.00 0.00 0.00 0.00 0.01 0.03 0.05 0.05 0.08 0.13 0.22 0.29 0.49 0.69 0.77 1.03 0.91 0.95 0.78
0.00 0.00 0.00 0.00 0.00 0.00 0.00 0.00 0.00 0.00 0.00 0.00 0.00 0.00 0.00 0.01 0.01 0.01 0.04 0.07 0.07 0.03 0.13 0.14 0.12 0.11 0.27 0.60 0.91 1.15 1.48 1.58
0.00 0.00 0.00 0.00 0.00 0.00 0.00 0.00 0.00 0.00 0.00 0.00 0.00 0.00 0.02 0.02 0.02 0.03 0.03 0.06 0.06 0.08 0.09 0.10 0.12 0.19 0.30 0.36 0.48 0.58 0.69 1.04
0.00 0.00 0.00 0.00 0.00 0.00 0.02 0.02 0.01 0.01 0.01 0.01 0.01 0.01 0.04 0.04 0.03 0.05 0.04 0.06 0.13 0.14 0.15 0.15 0.19 0.20 0.27 0.28 0.30 0.38 0.44 0.46
0.00 0.00 0.01 0.01 0.01 0.01 0.02 0.03 0.05 0.06 0.04 0.03 0.03 0.04 0.07 0.10 0.12 0.14 0.15 0.16 0.22 0.30 0.34 0.32 0.33 0.32 0.35 0.39 0.36 0.31 0.46 0.38
0.01 0.01 0.02 0.03 0.04 0.06 0.17 0.26 0.24 0.11 0.05 0.06 0.10 0.17 0.25 0.26 0.29 0.27 0.27 0.34 0.38 0.32 0.38 0.62 0.48 0.55 0.54 0.46 0.47 0.39 0.38 0.42
0.01 0.06 0.09 0.18 0.23 0.31 0.40 0.24 0.28 0.29 0.15 0.14 0.30 0.42 0.38 0.35 0.52 0.53 0.53 0.54 0.57 0.53 0.54 0.49 0.42 0.34 0.46 0.37 0.28 0.35 0.39 0.43
0.05 0.09 0.20 0.34 0.35 0.48 0.48 0.49 0.52 0.55 0.40 0.37 0.48 0.54 0.53 0.50 0.64 0.72 0.70 0.82 0.91 0.90 1.01 1.03 0.76 0.49 0.44 0.46 0.40 0.31 0.28 0.34
0.10 0.12 0.17 0.22 0.28 0.45 0.72 0.55 0.59 0.74 0.75 0.52 0.49 0.64 0.72 0.75 0.63 0.55 0.50 0.51 0.59 0.74 0.74 0.75 0.71 0.58 0.43 0.37 0.46 0.52 0.45 0.47
0.13 0.14 0.15 0.15 0.16 0.21 0.27 0.34 0.57 0.62 0.93 0.88 0.92 0.77 0.63 0.62 0.58 0.47 0.36 0.57 0.67 0.60 0.50 0.64 0.64 0.65 0.79 0.63 0.65 0.73 0.64 0.55
0.08 0.08 0.06 0.05 0.05 0.08 0.09 0.15 0.34 0.35 0.49 0.93 0.78 0.87 0.83 0.53 0.47 0.41 0.51 0.52 0.63 0.85 0.66 0.64 0.84 0.93 1.14 1.20 0.94 0.78 0.67 0.57
0.02 0.03 0.02 0.03 0.02 0.02 0.03 0.08 0.14 0.18 0.19 0.49 0.76 0.89 1.26 0.85 0.45 0.43 0.51 0.75 0.73 0.67 0.81 0.77 0.85 1.02 1.21 1.29 1.29 0.99 0.96 0.92
0.01 0.01 0.00 0.01 0.00 0.00 0.00 0.00 0.01 0.03 0.04 0.09 0.21 0.25 0.66 1.24 0.81 0.86 0.88 0.66 0.54 0.47 0.53 0.62 0.69 1.22 1.23 1.66 1.85 1.71 1.29 1.13

GFSFLT1_prec_precacc24_144.txt.gz
Total_Precipitation_Accumulation
0.00 0.00 0.00 0.00 0.00 0.00 0.00 0.00 0.00 0.00 0.00 0.00 0.00 0.00 0.03 0.03 0.06 0.30 0.40 0.53 0.70 0.93 1.04 0.99 1.05 1.00 0.85 0.76 0.69 0.75 0.84 0.62
0.00 0.00 0.00 0.00 0.00 0.00 0.00 0.00 0.00 0.00 0.00 0.00 0.00 0.00 0.00 0.05 0.07 0.05 0.22 0.29 0.44 0.52 0.88 1.54 1.33 0.72 0.50 0.70 0.87 0.69 0.46 0.50
0.00 0.00 0.00 0.00 0.00 0.00 0.00 0.00 0.00 0.00 0.00 0.00 0.00 0.00 0.00 0.00 0.03 0.08 0.09 0.11 0.17 0.37 0.43 0.62 0.99 1.01 0.81 0.70 0.78 0.85 0.69 0.66
0.00 0.00 0.00 0.00 0.00 0.00 0.00 0.00 0.00 0.00 0.00 0.00 0.00 0.00 0.00 0.00 0.00 0.00 0.03 0.08 0.10 0.14 0.25 0.30 0.49 0.95 0.88 0.58 0.49 0.66 0.73 0.74
0.00 0.00 0.00 0.00 0.00 0.00 0.00 0.00 0.00 0.00 0.00 0.00 0.00 0.00 0.00 0.00 0.00 0.00 0.01 0.09 0.15 0.16 0.19 0.27 0.37 0.36 0.62 0.61 0.51 0.49 0.53 0.55
0.00 0.00 0.00 0.00 0.00 0.00 0.00 0.00 0.00 0.00 0.00 0.00 0.00 0.00 0.00 0.00 0.00 0.00 0.00 0.01 0.07 0.13 0.25 0.35 0.47 0.58 0.33 0.69 0.72 0.67 0.61 0.52
0.00 0.00 0.00 0.00 0.00 0.00 0.00 0.00 0.00 0.00 0.00 0.00 0.00 0.00 0.00 0.00 0.00 0.00 0.00 0.00 0.00 0.02 0.06 0.12 0.18 0.34 0.57 0.73 0.98 0.90 0.94 0.78
0.00 0.00 0.00 0.00 0.00 0.00 0.00 0.00 0.00 0.00 0.00 0.00 0.00 0.00 0.00 0.01 0.01 0.02 0.02 0.02 0.02 0.01 0.05 0.07 0.08 0.06 0.26 0.56 0.82 1.12 1.47 1.58
0.00 0.00 0.00 0.00 0.00 0.00 0.00 0.00 0.00 0.00 0.00 0.00 0.00 0.00 0.01 0.03 0.03 0.03 0.04 0.04 0.04 0.03 0.04 0.05 0.08 0.13 0.26 0.35 0.48 0.56 0.65 1.03
0.00 0.00 0.00 0.00 0.00 0.00 0.01 0.01 0.01 0.00 0.01 0.01 0.01 0.01 0.04 0.04 0.04 0.05 0.06 0.06 0.07 0.06 0.06 0.06 0.10 0.16 0.23 0.29 0.31 0.37 0.41 0.45
0.00 0.00 0.00 0.00 0.00 0.00 0.02 0.02 0.04 0.05 0.03 0.02 0.03 0.04 0.08 0.11 0.12 0.14 0.14 0.14 0.15 0.13 0.11 0.12 0.14 0.24 0.31 0.36 0.36 0.32 0.43 0.38
0.00 0.00 0.00 0.00 0.01 0.04 0.16 0.21 0.18 0.09 0.03 0.03 0.07 0.15 0.23 0.23 0.24 0.24 0.24 0.23 0.22 0.19 0.20 0.21 0.22 0.41 0.52 0.49 0.52 0.41 0.37 0.42
0.00 0.01 0.03 0.06 0.09 0.20 0.31 0.12 0.07 0.05 0.05 0.09 0.21 0.31 0.30 0.25 0.29 0.30 0.28 0.30 0.28 0.27 0.30 0.27 0.23 0.25 0.42 0.41 0.34 0.38 0.37 0.41
0.02 0.04 0.06 0.12 0.16 0.21 0.16 0.11 0.11 0.09 0.13 0.25 0.33 0.37 0.35 0.36 0.35 0.34 0.34 0.35 0.33 0.29 0.33 0.38 0.31 0.29 0.34 0.40 0.37 0.27 0.21 0.24
0.05 0.05 0.09 0.11 0.14 0.14 0.16 0.15 0.15 0.13 0.18 0.30 0.36 0.48 0.55 0.51 0.43 0.34 0.19 0.15 0.16 0.20 0.28 0.39 0.43 0.40 0.39 0.37 0.45 0.50 0.46 0.42
0.06 0.07 0.07 0.07 0.06 0.05 0.06 0.08 0.11 0.11 0.11 0.21 0.59 0.58 0.50 0.40 0.32 0.22 0.12 0.13 0.16 0.20 0.15 0.22 0.27 0.28 0.47 0.45 0.51 0.58 0.52 0.49
0.03 0.02 0.02 0.01 0.00 0.00 0.00 0.02 0.06 0.06 0.09 0.17 0.25 0.33 0.61 0.45 0.34 0.21 0.25 0.24 0.33 0.59 0.40 0.35 0.45 0.52 0.62 0.74 0.64 0.62 0.53 0.42
0.00 0.00 0.00 0.00 0.00 0.00 0.00 0.00 0.00 0.00 0.01 0.03 0.06 0.13 0.23 0.34 0.25 0.16 0.30 0.55 0.54 0.45 0.60 0.61 0.69 0.74 0.76 0.88 0.87 0.73 0.77 0.77
0.00 0.00 0.00 0.00 0.00 0.00 0.00 0.00 0.00 0.00 0.00 0.00 0.00 0.02 0.04 0.12 0.19 0.15 0.21 0.17 0.21 0.24 0.33 0.43 0.53 1.02 0.93 1.26 1.38 1.21 0.95 0.89

GFSFLT1_prec_precacc24_147.txt.gz
Total_Precipitation_Accumulation
0.00 0.00 0.00 0.00 0.00 0.00 0.00 0.00 0.00 0.00 0.00 0.00 0.00 0.00 0.00 0.00 0.01 0.06 0.14 0.30 0.53 0.77 0.99 0.97 1.05 0.99 0.85 0.76 0.69 0.74 0.84 0.62
0.00 0.00 0.00 0.00 0.00 0.00 0.00 0.00 0.00 0.00 0.00 0.00 0.00 0.00 0.00 0.00 0.00 0.01 0.04 0.10 0.22 0.40 0.81 1.49 1.29 0.70 0.50 0.70 0.87 0.69 0.46 0.50
0.00 0.00 0.00 0.00 0.00 0.00 0.00 0.00 0.00 0.00 0.00 0.00 0.00 0.00 0.00 0.00 0.00 0.00 0.00 0.02 0.06 0.18 0.28 0.53 0.95 0.98 0.80 0.70 0.78 0.85 0.68 0.66
0.00 0.00 0.00 0.00 0.00 0.00 0.00 0.00 0.00 0.00 0.00 0.00 0.00 0.00 0.00 0.00 0.00 0.00 0.00 0.00 0.00 0.05 0.14 0.18 0.41 0.92 0.87 0.58 0.48 0.65 0.70 0.74
0.00 0.00 0.00 0.00 0.00 0.00 0.00 0.00 0.00 0.00 0.00 0.00 0.00 0.00 0.00 0.00 0.00 0.00 0.00 0.00 0.00 0.00 0.02 0.11 0.16 0.29 0.59 0.60 0.48 0.43 0.47 0.55
0.00 0.00 0.00 0.00 0.00 0.00 0.00 0.00 0.00 0.00 0.00 0.00 0.00 0.00 0.00 0.00 0.00 0.00 0.00 0.00 0.00 0.00 0.01 0.05 0.15 0.24 0.16 0.46 0.66 0.59 0.58 0.51
0.00 0.00 0.00 0.00 0.00 0.00 0.00 0.00 0.00 0.00 0.00 0.00 0.00 0.00 0.00 0.00 0.00 0.00 0.00 0.00 0.00 0.00 0.01 0.01 0.03 0.11 0.25 0.22 0.38 0.55 0.67 0.63
0.00 0.00 0.00 0.00 0.00 0.00 0.00 0.00 0.00 0.00 0.00 0.00 0.00 0.00 0.00 0.01 0.01 0.02 0.02 0.02 0.02 0.02 0.02 0.02 0.02 0.03 0.08 0.19 0.30 0.50 0.72 1.25
0.00 0.00 0.00 0.00 0.00 0.00 0.00 0.00 0.00 0.00 0.00 0.00 0.00 0.00 0.01 0.03 0.03 0.04 0.04 0.05 0.05 0.04 0.04 0.03 0.03 0.04 0.05 0.08 0.15 0.28 0.38 0.75
0.00 0.00 0.00 0.00 0.00 0.00 0.01 0.01 0.00 0.00 0.01 0.01 0.01 0.01 0.04 0.04 0.04 0.05 0.06 0.07 0.09 0.09 0.07 0.07 0.06 0.06 0.06 0.07 0.09 0.17 0.26 0.26
0.00 0.00 0.00 0.00 0.00 0.00 0.01 0.01 0.03 0.05 0.03 0.02 0.03 0.04 0.07 0.11 0.12 0.15 0.15 0.17 0.21 0.17 0.13 0.13 0.12 0.13 0.12 0.12 0.12 0.15 0.31 0.31
0.00 0.00 0.00 0.00 0.00 0.03 0.14 0.20 0.17 0.08 0.02 0.02 0.06 0.14 0.23 0.22 0.23 0.23 0.24 0.25 0.26 0.23 0.22 0.22 0.24 0.24 0.24 0.23 0.19 0.17 0.20 0.30
0.00 0.00 0.00 0.01 0.04 0.14 0.23 0.10 0.05 0.02 0.03 0.08 0.20 0.30 0.30 0.24 0.29 0.28 0.26 0.29 0.27 0.26 0.28 0.24 0.23 0.24 0.24 0.24 0.25 0.25 0.25 0.35
0.00 0.00 0.02 0.04 0.07 0.08 0.07 0.05 0.04 0.02 0.05 0.17 0.27 0.33 0.32 0.33 0.31 0.30 0.28 0.30 0.30 0.25 0.29 0.31 0.25 0.22 0.22 0.23 0.24 0.22 0.22 0.25
0.01 0.01 0.02 0.03 0.04 0.06 0.09 0.09 0.09 0.05 0.09 0.16 0.23 0.38 0.48 0.45 0.37 0.29 0.16 0.11 0.12 0.17 0.25 0.34 0.35 0.26 0.24 0.24 0.22 0.23 0.29 0.29
0.01 0.01 0.01 0.02 0.03 0.04 0.03 0.04 0.07 0.05 0.07 0.11 0.25 0.32 0.37 0.30 0.26 0.19 0.12 0.13 0.13 0.13 0.11 0.11 0.12 0.16 0.28 0.24 0.25 0.23 0.24 0.27
0.00 0.00 0.01 0.00 0.00 0.00 0.00 0.00 0.01 0.01 0.02 0.06 0.07 0.09 0.17 0.22 0.25 0.17 0.15 0.15 0.15 0.22 0.25 0.21 0.19 0.20 0.15 0.18 0.20 0.28 0.30 0.22
0.00 0.00 0.00 0.00 0.00 0.00 0.00 0.00 0.00 0.00 0.00 0.00 0.00 0.01 0.03 0.07 0.11 0.08 0.11 0.25 0.27 0.23 0.32 0.34 0.41 0.48 0.43 0.34 0.30 0.29 0.47 0.51
0.00 0.00 0.00 0.00 0.00 0.00 0.00 0.00 0.00 0.00 0.00 0.00 0.00 0.00 0.00 0.00 0.01 0.01 0.02 0.03 0.05 0.14 0.19 0.26 0.33 0.59 0.63 0.67 0.63 0.62 0.60 0.64

GFSFLT1_prec_precacc24_153.txt.gz
Total_Precipitation_Accumulation
0.00 0.00 0.00 0.00 0.00 0.00 0.00 0.00 0.00 0.00 0.00 0.00 0.00 0.00 0.00 0.00 0.00 0.00 0.00 0.00 0.00 0.00 0.00 0.14 0.34 0.46 0.55 0.57 0.60 0.65 0.78 0.60
0.00 0.00 0.00 0.00 0.00 0.00 0.00 0.00 0.00 0.00 0.00 0.00 0.00 0.00 0.00 0.00 0.00 0.00 0.00 0.00 0.00 0.00 0.00 0.00 0.03 0.07 0.07 0.25 0.51 0.48 0.28 0.33
0.00 0.00 0.00 0.00 0.00 0.00 0.00 0.00 0.00 0.00 0.00 0.00 0.00 0.00 0.00 0.00 0.00 0.00 0.00 0.00 0.00 0.00 0.00 0.00 0.00 0.04 0.13 0.18 0.27 0.33 0.27 0.24
0.00 0.00 0.00 0.00 0.00 0.00 0.00 0.00 0.00 0.00 0.00 0.00 0.00 0.00 0.00 0.00 0.00 0.00 0.00 0.00 0.00 0.00 0.00 0.00 0.00 0.00 0.05 0.12 0.17 0.25 0.35 0.35
0.00 0.00 0.00 0.00 0.00 0.00 0.00 0.00 0.00 0.00 0.00 0.00 0.00 0.00 0.00 0.00 0.00 0.00 0.00 0.00 0.00 0.00 0.00 0.00 0.00 0.00 0.01 0.08 0.13 0.17 0.17 0.30
0.00 0.00 0.00 0.00 0.00 0.00 0.00 0.00 0.00 0.00 0.00 0.00 0.00 0.00 0.00 0.00 0.00 0.00 0.00 0.00 0.00 0.00 0.00 0.00 0.00 0.01 0.01 0.03 0.09 0.13 0.18 0.17
0.00 0.00 0.00 0.00 0.00 0.00 0.00 0.00 0.00 0.00 0.00 0.00 0.00 0.00 0.00 0.00 0.00 0.00 0.00 0.00 0.00 0.00 0.01 0.01 0.01 0.01 0.02 0.03 0.04 0.05 0.08 0.16
0.00 0.00 0.00 0.00 0.00 0.00 0.00 0.00 0.00 0.00 0.00 0.00 0.00 0.00 0.00 0.01 0.01 0.02 0.02 0.02 0.02 0.02 0.02 0.02 0.02 0.03 0.03 0.04 0.04 0.05 0.07 0.18
0.00 0.00 0.00 0.00 0.00 0.00 0.00 0.00 0.00 0.00 0.00 0.00 0.00 0.00 0.01 0.02 0.03 0.04 0.04 0.06 0.06 0.06 0.06 0.03 0.03 0.05 0.04 0.04 0.05 0.05 0.07 0.10
0.00 0.00 0.00 0.00 0.00 0.00 0.00 0.00 0.00 0.00 0.00 0.00 0.00 0.00 0.03 0.04 0.04 0.04 0.06 0.07 0.10 0.10 0.09 0.07 0.06 0.07 0.06 0.07 0.08 0.08 0.09 0.13
0.00 0.00 0.00 0.00 0.00 0.00 0.00 0.00 0.00 0.00 0.00 0.00 0.01 0.01 0.05 0.09 0.10 0.13 0.13 0.15 0.19 0.17 0.14 0.12 0.12 0.13 0.12 0.12 0.12 0.13 0.14 0.16
0.00 0.00 0.00 0.00 0.00 0.00 0.01 0.01 0.00 0.00 0.00 0.01 0.03 0.10 0.18 0.18 0.20 0.19 0.19 0.21 0.23 0.21 0.21 0.21 0.24 0.24 0.24 0.23 0.20 0.18 0.18 0.15
0.00 0.00 0.00 0.00 0.00 0.01 0.02 0.02 0.00 0.00 0.01 0.05 0.16 0.22 0.23 0.18 0.22 0.21 0.21 0.24 0.24 0.23 0.25 0.21 0.22 0.23 0.24 0.24 0.25 0.25 0.24 0.21
0.00 0.00 0.00 0.00 0.00 0.00 0.02 0.01 0.00 0.00 0.02 0.10 0.18 0.20 0.19 0.21 0.23 0.22 0.22 0.25 0.26 0.22 0.26 0.28 0.23 0.21 0.21 0.21 0.23 0.21 0.23 0.23
0.00 0.00 0.00 0.00 0.00 0.02 0.03 0.01 0.00 0.00 0.01 0.05 0.10 0.14 0.21 0.24 0.23 0.18 0.11 0.07 0.08 0.13 0.20 0.31 0.31 0.24 0.21 0.21 0.19 0.20 0.26 0.26
0.00 0.00 0.00 0.00 0.01 0.01 0.00 0.00 0.00 0.00 0.00 0.00 0.03 0.06 0.08 0.07 0.08 0.07 0.02 0.02 0.04 0.03 0.02 0.05 0.08 0.12 0.22 0.19 0.20 0.19 0.21 0.24
0.00 0.00 0.00 0.00 0.00 0.00 0.00 0.00 0.00 0.00 0.00 0.00 0.00 0.00 0.00 0.00 0.00 0.00 0.00 0.00 0.00 0.01 0.01 0.01 0.04 0.09 0.08 0.09 0.12 0.14 0.13 0.14
0.00 0.00 0.00 0.00 0.00 0.00 0.00 0.00 0.00 0.00 0.00 0.00 0.00 0.00 0.00 0.00 0.00 0.00 0.00 0.00 0.00 0.00 0.01 0.00 0.01 0.04 0.07 0.11 0.09 0.08 0.05 0.06
0.00 0.00 0.00 0.00 0.00 0.00 0.00 0.00 0.00 0.00 0.00 0.00 0.00 0.00 0.00 0.00 0.00 0.00 0.00 0.01 0.00 0.01 0.01 0.00 0.00 0.00 0.01 0.03 0.08 0.09 0.09 0.09

GFSFLT1_prec_precacc24_159.txt.gz
Total_Precipitation_Accumulation
0.00 0.00 0.00 0.00 0.00 0.00 0.00 0.00 0.00 0.00 0.00 0.00 0.00 0.00 0.00 0.00 0.00 0.00 0.00 0.00 0.00 0.00 0.00 0.00 0.00 0.00 0.00 0.00 0.00 0.00 0.00 0.03
0.00 0.00 0.00 0.00 0.00 0.00 0.00 0.00 0.00 0.00 0.00 0.00 0.00 0.00 0.00 0.00 0.00 0.00 0.00 0.00 0.00 0.00 0.00 0.00 0.00 0.00 0.00 0.00 0.00 0.00 0.00 0.00
0.00 0.00 0.00 0.00 0.00 0.00 0.00 0.00 0.00 0.00 0.00 0.00 0.00 0.00 0.00 0.00 0.00 0.00 0.00 0.00 0.00 0.00 0.00 0.00 0.00 0.00 0.00 0.00 0.00 0.01 0.00 0.00
0.00 0.00 0.00 0.00 0.00 0.00 0.00 0.00 0.00 0.00 0.00 0.00 0.00 0.00 0.00 0.00 0.00 0.00 0.00 0.00 0.00 0.00 0.00 0.00 0.00 0.00 0.01 0.00 0.00 0.02 0.02 0.01
0.00 0.00 0.00 0.00 0.00 0.00 0.00 0.00 0.00 0.00 0.00 0.00 0.00 0.00 0.00 0.00 0.00 0.00 0.00 0.00 0.00 0.00 0.00 0.00 0.00 0.00 0.01 0.01 0.01 0.01 0.03 0.03
0.00 0.00 0.00 0.00 0.00 0.00 0.00 0.00 0.00 0.00 0.00 0.00 0.00 0.00 0.00 0.00 0.00 0.00 0.00 0.00 0.00 0.00 0.00 0.00 0.00 0.01 0.01 0.01 0.02 0.02 0.03 0.04
0.00 0.00 0.00 0.00 0.00 0.00 0.00 0.00 0.00 0.00 0.00 0.00 0.00 0.00 0.00 0.00 0.00 0.00 0.00 0.00 0.00 0.00 0.01 0.01 0.01 0.01 0.02 0.02 0.03 0.04 0.04 0.04
0.00 0.00 0.00 0.00 0.00 0.00 0.00 0.00 0.00 0.00 0.00 0.00 0.00 0.00 0.00 0.00 0.01 0.01 0.01 0.02 0.02 0.02 0.02 0.02 0.02 0.03 0.03 0.04 0.04 0.04 0.05 0.06
0.00 0.00 0.00 0.00 0.00 0.00 0.00 0.00 0.00 0.00 0.00 0.00 0.00 0.00 0.00 0.01 0.01 0.02 0.03 0.04 0.05 0.05 0.05 0.03 0.03 0.05 0.04 0.04 0.06 0.05 0.07 0.09
0.00 0.00 0.00 0.00 0.00 0.00 0.00 0.00 0.00 0.00 0.00 0.00 0.00 0.00 0.00 0.01 0.02 0.03 0.04 0.05 0.08 0.09 0.07 0.05 0.05 0.06 0.05 0.06 0.07 0.07 0.09 0.13
0.00 0.00 0.00 0.00 0.00 0.00 0.00 0.00 0.00 0.00 0.00 0.00 0.00 0.00 0.01 0.04 0.04 0.06 0.06 0.09 0.13 0.13 0.09 0.08 0.09 0.10 0.10 0.11 0.11 0.12 0.14 0.16
0.00 0.00 0.00 0.00 0.00 0.00 0.00 0.00 0.00 0.00 0.00 0.00 0.00 0.02 0.05 0.06 0.06 0.06 0.08 0.12 0.14 0.12 0.13 0.13 0.16 0.18 0.19 0.18 0.16 0.16 0.17 0.15
0.00 0.00 0.00 0.00 0.00 0.00 0.00 0.00 0.00 0.00 0.00 0.00 0.01 0.03 0.04 0.04 0.05 0.06 0.09 0.13 0.14 0.15 0.17 0.14 0.15 0.17 0.19 0.20 0.21 0.21 0.20 0.17
0.00 0.00 0.00 0.00 0.00 0.00 0.01 0.00 0.00 0.00 0.00 0.00 0.00 0.01 0.01 0.02 0.02 0.02 0.06 0.13 0.16 0.15 0.18 0.20 0.17 0.16 0.17 0.18 0.20 0.19 0.19 0.19
0.00 0.00 0.00 0.00 0.00 0.01 0.01 0.01 0.00 0.00 0.00 0.00 0.00 0.00 0.01 0.00 0.00 0.00 0.01 0.01 0.02 0.05 0.12 0.21 0.24 0.19 0.17 0.17 0.15 0.16 0.20 0.21
0.00 0.00 0.00 0.00 0.00 0.00 0.00 0.00 0.00 0.00 0.00 0.00 0.00 0.00 0.00 0.00 0.00 0.00 0.00 0.00 0.00 0.00 0.00 0.01 0.03 0.06 0.12 0.13 0.15 0.14 0.14 0.16
0.00 0.00 0.00 0.00 0.00 0.00 0.00 0.00 0.00 0.00 0.00 0.00 0.00 0.00 0.00 0.00 0.00 0.00 0.00 0.00 0.00 0.00 0.00 0.00 0.00 0.01 0.00 0.01 0.02 0.05 0.05 0.04
0.00 0.00 0.00 0.00 0.00 0.00 0.00 0.00 0.00 0.00 0.00 0.00 0.00 0.00 0.00 0.00 0.00 0.00 0.00 0.00 0.00 0.00 0.00 0.00 0.00 0.00 0.00 0.00 0.00 0.00 0.00 0.01
0.00 0.00 0.00 0.00 0.00 0.00 0.00 0.00 0.00 0.00 0.00 0.00 0.00 0.00 0.00 0.00 0.00 0.00 0.00 0.00 0.00 0.00 0.00 0.00 0.00 0.00 0.00 0.00 0.00 0.00 0.00 0.00

GFSFLT1_prec_precacc24_162.txt.gz
Total_Precipitation_Accumulation
0.00 0.00 0.00 0.00 0.00 0.00 0.00 0.00 0.00 0.00 0.00 0.00 0.00 0.00 0.00 0.00 0.00 0.00 0.00 0.00 0.00 0.00 0.00 0.00 0.00 0.00 0.00 0.00 0.00 0.00 0.00 0.00
0.00 0.00 0.00 0.00 0.00 0.00 0.00 0.00 0.00 0.00 0.00 0.00 0.00 0.00 0.00 0.00 0.00 0.00 0.00 0.00 0.00 0.00 0.00 0.00 0.00 0.00 0.00 0.00 0.00 0.00 0.00 0.00
0.00 0.00 0.00 0.00 0.00 0.00 0.00 0.00 0.00 0.00 0.00 0.00 0.00 0.00 0.00 0.00 0.00 0.00 0.00 0.00 0.00 0.00 0.00 0.00 0.00 0.00 0.00 0.00 0.00 0.00 0.00 0.00
0.00 0.00 0.00 0.00 0.00 0.00 0.00 0.00 0.00 0.00 0.00 0.00 0.00 0.00 0.00 0.00 0.00 0.00 0.00 0.00 0.00 0.00 0.00 0.00 0.00 0.00 0.01 0.00 0.00 0.02 0.02 0.00
0.00 0.00 0.00 0.00 0.00 0.00 0.00 0.00 0.00 0.00 0.00 0.00 0.00 0.00 0.00 0.00 0.00 0.00 0.00 0.00 0.00 0.00 0.00 0.00 0.00 0.00 0.01 0.01 0.01 0.01 0.03 0.03
0.00 0.00 0.00 0.00 0.00 0.00 0.00 0.00 0.00 0.00 0.00 0.00 0.00 0.00 0.00 0.00 0.00 0.00 0.00 0.00 0.00 0.00 0.00 0.00 0.00 0.01 0.01 0.01 0.02 0.02 0.03 0.04
0.00 0.00 0.00 0.00 0.00 0.00 0.00 0.00 0.00 0.00 0.00 0.00 0.00 0.00 0.00 0.00 0.00 0.00 0.00 0.00 0.00 0.00 0.01 0.00 0.01 0.01 0.02 0.02 0.03 0.04 0.04 0.04
0.00 0.00 0.00 0.00 0.00 0.00 0.00 0.00 0.00 0.00 0.00 0.00 0.00 0.00 0.00 0.00 0.00 0.00 0.01 0.01 0.02 0.02 0.02 0.02 0.02 0.03 0.03 0.03 0.04 0.04 0.05 0.06
0.00 0.00 0.00 0.00 0.00 0.00 0.00 0.00 0.00 0.00 0.00 0.00 0.00 0.00 0.00 0.00 0.00 0.01 0.02 0.03 0.04 0.04 0.04 0.02 0.03 0.04 0.03 0.04 0.05 0.05 0.07 0.09
0.00 0.00 0.00 0.00 0.00 0.00 0.00 0.00 0.00 0.00 0.00 0.00 0.00 0.00 0.00 0.00 0.01 0.02 0.03 0.04 0.06 0.07 0.05 0.04 0.04 0.05 0.05 0.06 0.07 0.07 0.09 0.12
0.00 0.00 0.00 0.00 0.00 0.00 0.00 0.00 0.00 0.00 0.00 0.00 0.00 0.00 0.00 0.01 0.02 0.04 0.04 0.07 0.11 0.10 0.07 0.06 0.07 0.09 0.08 0.08 0.09 0.12 0.13 0.15
0.00 0.00 0.00 0.00 0.00 0.00 0.00 0.00 0.00 0.00 0.00 0.00 0.00 0.00 0.00 0.01 0.02 0.03 0.06 0.10 0.11 0.09 0.08 0.09 0.13 0.15 0.16 0.16 0.15 0.15 0.14 0.13
0.00 0.00 0.00 0.00 0.00 0.00 0.00 0.00 0.00 0.00 0.00 0.00 0.00 0.00 0.00 0.00 0.01 0.03 0.05 0.08 0.09 0.10 0.12 0.10 0.10 0.12 0.14 0.16 0.19 0.19 0.18 0.16
0.00 0.00 0.00 0.00 0.00 0.00 0.00 0.00 0.00 0.00 0.00 0.00 0.00 0.00 0.00 0.00 0.00 0.00 0.01 0.03 0.06 0.06 0.09 0.13 0.12 0.12 0.12 0.13 0.16 0.17 0.17 0.17
0.00 0.00 0.00 0.00 0.00 0.00 0.00 0.00 0.00 0.00 0.00 0.00 0.00 0.00 0.00 0.00 0.00 0.00 0.00 0.00 0.00 0.00 0.02 0.07 0.10 0.11 0.13 0.14 0.12 0.14 0.19 0.20
0.00 0.00 0.00 0.00 0.00 0.00 0.00 0.00 0.00 0.00 0.00 0.00 0.00 0.00 0.00 0.00 0.00 0.00 0.00 0.00 0.00 0.00 0.00 0.00 0.00 0.01 0.03 0.04 0.07 0.09 0.11 0.13
0.00 0.00 0.00 0.00 0.00 0.00 0.00 0.00 0.00 0.00 0.00 0.00 0.00 0.00 0.00 0.00 0.00 0.00 0.00 0.00 0.00 0.00 0.00 0.00 0.00 0.01 0.00 0.00 0.00 0.00 0.02 0.03
0.00 0.00 0.00 0.00 0.00 0.00 0.00 0.00 0.00 0.00 0.00 0.00 0.00 0.00 0.00 0.00 0.00 0.00 0.00 0.00 0.00 0.00 0.00 0.00 0.00 0.00 0.00 0.00 0.00 0.00 0.00 0.00
0.00 0.00 0.00 0.00 0.00 0.00 0.00 0.00 0.00 0.00 0.00 0.00 0.00 0.00 0.00 0.00 0.00 0.00 0.00 0.00 0.00 0.00 0.00 0.00 0.00 0.00 0.00 0.00 0.00 0.00 0.00 0.00

GFSFLT1_prec_precacc24_165.txt.gz
Total_Precipitation_Accumulation
0.00 0.00 0.00 0.00 0.00 0.00 0.00 0.00 0.00 0.00 0.00 0.00 0.00 0.00 0.00 0.00 0.00 0.00 0.00 0.00 0.00 0.00 0.00 0.00 0.00 0.00 0.00 0.00 0.00 0.00 0.00 0.00
0.00 0.00 0.00 0.00 0.00 0.00 0.00 0.00 0.00 0.00 0.00 0.00 0.00 0.00 0.00 0.00 0.00 0.00 0.00 0.00 0.00 0.00 0.00 0.00 0.00 0.00 0.00 0.00 0.00 0.00 0.00 0.00
0.00 0.00 0.00 0.00 0.00 0.00 0.00 0.00 0.00 0.00 0.00 0.00 0.00 0.00 0.00 0.00 0.00 0.00 0.00 0.00 0.00 0.00 0.00 0.00 0.00 0.00 0.00 0.00 0.00 0.00 0.00 0.00
0.00 0.00 0.00 0.00 0.00 0.00 0.00 0.00 0.00 0.00 0.00 0.00 0.00 0.00 0.00 0.00 0.00 0.00 0.00 0.00 0.00 0.00 0.00 0.00 0.00 0.00 0.01 0.00 0.00 0.02 0.02 0.00
0.00 0.00 0.00 0.00 0.00 0.00 0.00 0.00 0.00 0.00 0.00 0.00 0.00 0.00 0.00 0.00 0.00 0.00 0.00 0.00 0.00 0.00 0.00 0.00 0.00 0.00 0.01 0.01 0.01 0.01 0.03 0.03
0.00 0.00 0.00 0.00 0.00 0.00 0.00 0.00 0.00 0.00 0.00 0.00 0.00 0.00 0.00 0.00 0.00 0.00 0.00 0.00 0.00 0.00 0.00 0.00 0.00 0.00 0.01 0.01 0.02 0.02 0.03 0.04
0.00 0.00 0.00 0.00 0.00 0.00 0.00 0.00 0.00 0.00 0.00 0.00 0.00 0.00 0.00 0.00 0.00 0.00 0.00 0.00 0.00 0.00 0.00 0.00 0.00 0.01 0.02 0.02 0.03 0.03 0.04 0.04
0.00 0.00 0.00 0.00 0.00 0.00 0.00 0.00 0.00 0.00 0.00 0.00 0.00 0.00 0.00 0.00 0.00 0.00 0.00 0.01 0.01 0.01 0.01 0.01 0.01 0.02 0.02 0.03 0.03 0.04 0.04 0.06
0.00 0.00 0.00 0.00 0.00 0.00 0.00 0.00 0.00 0.00 0.00 0.00 0.00 0.00 0.00 0.00 0.00 0.00 0.01 0.02 0.03 0.03 0.03 0.01 0.02 0.04 0.03 0.03 0.04 0.04 0.06 0.08
0.00 0.00 0.00 0.00 0.00 0.00 0.00 0.00 0.00 0.00 0.00 0.00 0.00 0.00 0.00 0.00 0.00 0.01 0.01 0.03 0.05 0.06 0.04 0.03 0.03 0.04 0.03 0.04 0.05 0.06 0.08 0.12
0.00 0.00 0.00 0.00 0.00 0.00 0.00 0.00 0.00 0.00 0.00 0.00 0.00 0.00 0.00 0.00 0.00 0.02 0.03 0.06 0.10 0.09 0.05 0.03 0.03 0.04 0.04 0.05 0.06 0.09 0.11 0.13
0.00 0.00 0.00 0.00 0.00 0.00 0.00 0.00 0.00 0.00 0.00 0.00 0.00 0.00 0.00 0.00 0.00 0.01 0.04 0.08 0.09 0.06 0.05 0.05 0.07 0.07 0.08 0.09 0.10 0.11 0.10 0.10
0.00 0.00 0.00 0.00 0.00 0.00 0.00 0.00 0.00 0.00 0.00 0.00 0.00 0.00 0.00 0.00 0.00 0.00 0.00 0.03 0.04 0.05 0.07 0.06 0.06 0.07 0.09 0.09 0.12 0.14 0.14 0.12
0.00 0.00 0.00 0.00 0.00 0.00 0.00 0.00 0.00 0.00 0.00 0.00 0.00 0.00 0.00 0.00 0.00 0.00 0.00 0.00 0.01 0.02 0.03 0.05 0.06 0.07 0.07 0.07 0.10 0.11 0.13 0.13
0.00 0.00 0.00 0.00 0.00 0.00 0.00 0.00 0.00 0.00 0.00 0.00 0.00 0.00 0.00 0.00 0.00 0.00 0.00 0.00 0.00 0.00 0.00 0.01 0.01 0.02 0.04 0.06 0.07 0.10 0.14 0.16
0.00 0.00 0.00 0.00 0.00 0.00 0.00 0.00 0.00 0.00 0.00 0.00 0.00 0.00 0.00 0.00 0.00 0.00 0.00 0.00 0.00 0.00 0.00 0.00 0.00 0.00 0.00 0.00 0.01 0.03 0.06 0.08
0.00 0.00 0.00 0.00 0.00 0.00 0.00 0.00 0.00 0.00 0.00 0.00 0.00 0.00 0.00 0.00 0.00 0.00 0.00 0.00 0.00 0.00 0.00 0.00 0.00 0.00 0.00 0.00 0.00 0.00 0.00 0.00
0.00 0.00 0.00 0.00 0.00 0.00 0.00 0.00 0.00 0.00 0.00 0.00 0.00 0.00 0.00 0.00 0.00 0.00 0.00 0.00 0.00 0.00 0.00 0.00 0.00 0.00 0.00 0.00 0.00 0.00 0.00 0.00
0.00 0.00 0.00 0.00 0.00 0.00 0.00 0.00 0.00 0.00 0.00 0.00 0.00 0.00 0.00 0.00 0.00 0.00 0.00 0.00 0.00 0.00 0.00 0.00 0.00 0.00 0.00 0.00 0.00 0.00 0.00 0.00

GFSFLT1_prec_precacc24_171.txt.gz
Total_Precipitation_Accumulation
0.00 0.00 0.00 0.00 0.00 0.00 0.00 0.00 0.01 0.00 0.00 0.00 0.00 0.00 0.00 0.00 0.00 0.00 0.00 0.00 0.00 0.00 0.00 0.00 0.00 0.00 0.00 0.00 0.00 0.00 0.00 0.00
0.00 0.00 0.00 0.00 0.00 0.00 0.00 0.00 0.00 0.00 0.00 0.00 0.00 0.00 0.00 0.00 0.00 0.00 0.00 0.00 0.00 0.00 0.00 0.00 0.00 0.00 0.00 0.00 0.00 0.00 0.00 0.00
0.00 0.00 0.00 0.00 0.00 0.00 0.00 0.00 0.00 0.00 0.00 0.00 0.00 0.00 0.00 0.00 0.00 0.00 0.00 0.00 0.00 0.00 0.00 0.00 0.00 0.00 0.00 0.00 0.00 0.00 0.00 0.00
0.00 0.00 0.00 0.00 0.00 0.00 0.00 0.00 0.00 0.00 0.00 0.00 0.00 0.00 0.00 0.00 0.00 0.00 0.00 0.00 0.00 0.00 0.00 0.00 0.00 0.00 0.00 0.00 0.00 0.02 0.02 0.00
0.00 0.00 0.00 0.00 0.00 0.00 0.00 0.00 0.00 0.00 0.00 0.00 0.00 0.00 0.00 0.00 0.00 0.00 0.00 0.00 0.00 0.00 0.00 0.00 0.00 0.00 0.01 0.01 0.01 0.01 0.03 0.03
0.00 0.00 0.00 0.00 0.00 0.00 0.00 0.00 0.00 0.00 0.00 0.00 0.00 0.00 0.00 0.00 0.00 0.00 0.00 0.00 0.00 0.00 0.00 0.00 0.00 0.00 0.01 0.01 0.01 0.02 0.02 0.04
0.00 0.00 0.00 0.00 0.00 0.00 0.00 0.00 0.00 0.00 0.00 0.00 0.00 0.00 0.00 0.00 0.00 0.00 0.00 0.00 0.00 0.00 0.00 0.00 0.00 0.00 0.01 0.01 0.02 0.02 0.03 0.03
0.00 0.00 0.00 0.00 0.00 0.00 0.00 0.00 0.00 0.00 0.00 0.00 0.00 0.00 0.00 0.00 0.00 0.00 0.00 0.00 0.00 0.01 0.01 0.00 0.00 0.01 0.01 0.02 0.02 0.02 0.03 0.04
0.00 0.00 0.00 0.00 0.00 0.00 0.00 0.00 0.00 0.00 0.00 0.00 0.00 0.00 0.00 0.00 0.00 0.00 0.00 0.01 0.01 0.01 0.01 0.00 0.01 0.01 0.01 0.01 0.02 0.02 0.05 0.07
0.00 0.00 0.00 0.00 0.00 0.00 0.00 0.00 0.00 0.00 0.00 0.00 0.00 0.00 0.00 0.00 0.00 0.00 0.00 0.00 0.01 0.02 0.02 0.00 0.00 0.01 0.00 0.01 0.01 0.02 0.05 0.08
0.00 0.00 0.00 0.00 0.00 0.00 0.00 0.00 0.00 0.00 0.00 0.00 0.00 0.00 0.00 0.00 0.00 0.00 0.00 0.00 0.00 0.01 0.01 0.00 0.00 0.00 0.00 0.00 0.01 0.02 0.03 0.03
0.00 0.00 0.00 0.00 0.00 0.00 0.00 0.00 0.00 0.00 0.00 0.00 0.00 0.00 0.00 0.00 0.00 0.00 0.00 0.00 0.00 0.00 0.00 0.00 0.00 0.00 0.00 0.01 0.01 0.02 0.02 0.02
0.00 0.00 0.00 0.00 0.00 0.00 0.00 0.00 0.00 0.00 0.00 0.00 0.00 0.00 0.00 0.00 0.00 0.00 0.00 0.00 0.00 0.00 0.00 0.00 0.00 0.00 0.01 0.01 0.01 0.01 0.01 0.02
0.01 0.00 0.00 0.00 0.00 0.00 0.00 0.00 0.00 0.00 0.00 0.00 0.00 0.00 0.00 0.00 0.00 0.00 0.00 0.00 0.00 0.00 0.00 0.00 0.00 0.00 0.00 0.00 0.00 0.01 0.02 0.02
0.00 0.00 0.00 0.00 0.00 0.00 0.00 0.00 0.00 0.00 0.00 0.00 0.00 0.01 0.02 0.02 0.02 0.00 0.00 0.00 0.00 0.00 0.00 0.00 0.00 0.00 0.00 0.00 0.00 0.00 0.00 0.00
0.00 0.00 0.00 0.00 0.00 0.00 0.00 0.00 0.00 0.00 0.00 0.00 0.00 0.02 0.05 0.05 0.03 0.00 0.00 0.00 0.00 0.00 0.00 0.00 0.00 0.00 0.00 0.00 0.00 0.00 0.00 0.00
0.00 0.00 0.00 0.00 0.00 0.00 0.01 0.01 0.03 0.03 0.01 0.00 0.01 0.05 0.08 0.04 0.01 0.00 0.00 0.00 0.00 0.00 0.00 0.00 0.00 0.00 0.00 0.00 0.00 0.00 0.00 0.00
0.00 0.00 0.00 0.00 0.00 0.00 0.00 0.00 0.00 0.01 0.04 0.01 0.01 0.04 0.04 0.01 0.00 0.00 0.00 0.00 0.00 0.00 0.00 0.00 0.00 0.00 0.00 0.00 0.00 0.00 0.00 0.00
0.00 0.00 0.00 0.00 0.00 0.00 0.00 0.00 0.00 0.00 0.01 0.01 0.01 0.02 0.02 0.00 0.00 0.00 0.00 0.00 0.00 0.00 0.00 0.00 0.00 0.00 0.00 0.00 0.00 0.00 0.00 0.00

GFSFLT1_prec_precacc24_177.txt.gz
Total_Precipitation_Accumulation
0.00 0.00 0.00 0.00 0.00 0.00 0.00 0.00 0.01 0.02 0.01 0.00 0.00 0.00 0.00 0.00 0.00 0.00 0.00 0.00 0.00 0.00 0.00 0.00 0.00 0.00 0.00 0.00 0.00 0.00 0.00 0.00
0.00 0.00 0.00 0.00 0.00 0.00 0.00 0.01 0.01 0.01 0.00 0.00 0.01 0.02 0.01 0.00 0.00 0.00 0.00 0.00 0.00 0.00 0.00 0.00 0.00 0.00 0.00 0.00 0.00 0.00 0.00 0.00
0.00 0.00 0.00 0.00 0.00 0.00 0.00 0.00 0.00 0.01 0.01 0.01 0.02 0.04 0.02 0.00 0.00 0.00 0.00 0.00 0.00 0.00 0.00 0.00 0.00 0.00 0.00 0.00 0.00 0.00 0.00 0.00
0.00 0.00 0.00 0.00 0.00 0.00 0.00 0.00 0.00 0.00 0.00 0.00 0.03 0.02 0.01 0.00 0.00 0.00 0.00 0.00 0.00 0.00 0.00 0.00 0.00 0.00 0.00 0.00 0.00 0.01 0.01 0.00
0.00 0.00 0.00 0.00 0.00 0.00 0.00 0.00 0.00 0.00 0.00 0.00 0.01 0.01 0.00 0.00 0.00 0.00 0.00 0.00 0.00 0.00 0.00 0.00 0.00 0.00 0.00 0.00 0.00 0.00 0.01 0.01
0.00 0.00 0.00 0.00 0.00 0.00 0.00 0.00 0.00 0.00 0.00 0.01 0.01 0.01 0.00 0.00 0.00 0.00 0.00 0.00 0.00 0.00 0.00 0.00 0.00 0.00 0.00 0.00 0.00 0.01 0.01 0.02
0.00 0.00 0.00 0.00 0.00 0.00 0.00 0.01 0.03 0.03 0.02 0.02 0.02 0.01 0.00 0.00 0.00 0.00 0.00 0.00 0.00 0.00 0.00 0.00 0.00 0.00 0.00 0.00 0.01 0.00 0.01 0.01
0.00 0.00 0.00 0.00 0.00 0.00 0.00 0.01 0.05 0.07 0.04 0.01 0.01 0.01 0.00 0.00 0.00 0.00 0.00 0.00 0.00 0.00 0.00 0.00 0.00 0.00 0.00 0.00 0.00 0.00 0.00 0.01
0.00 0.00 0.00 0.00 0.00 0.00 0.00 0.01 0.06 0.10 0.07 0.02 0.01 0.01 0.00 0.00 0.00 0.00 0.00 0.00 0.00 0.00 0.00 0.00 0.00 0.00 0.00 0.00 0.00 0.00 0.00 0.00
0.00 0.00 0.00 0.00 0.00 0.00 0.01 0.05 0.09 0.12 0.10 0.04 0.02 0.04 0.02 0.00 0.00 0.00 0.00 0.00 0.00 0.00 0.00 0.00 0.00 0.00 0.00 0.00 0.00 0.00 0.00 0.00
0.00 0.00 0.00 0.00 0.00 0.01 0.05 0.06 0.08 0.10 0.07 0.05 0.04 0.04 0.03 0.00 0.00 0.00 0.00 0.00 0.00 0.00 0.00 0.00 0.00 0.00 0.00 0.00 0.00 0.00 0.00 0.00
0.00 0.00 0.00 0.00 0.00 0.02 0.04 0.04 0.06 0.09 0.09 0.12 0.13 0.10 0.06 0.02 0.00 0.00 0.00 0.00 0.00 0.00 0.00 0.00 0.00 0.00 0.00 0.00 0.00 0.00 0.00 0.00
0.00 0.00 0.00 0.00 0.00 0.01 0.02 0.03 0.07 0.11 0.18 0.27 0.28 0.17 0.08 0.02 0.01 0.00 0.00 0.00 0.00 0.00 0.00 0.00 0.00 0.00 0.00 0.00 0.00 0.00 0.00 0.00
0.01 0.02 0.03 0.02 0.02 0.02 0.02 0.03 0.07 0.10 0.17 0.14 0.08 0.06 0.02 0.00 0.00 0.00 0.00 0.00 0.00 0.00 0.00 0.00 0.00 0.00 0.00 0.00 0.00 0.00 0.00 0.00
0.00 0.00 0.01 0.01 0.01 0.01 0.01 0.01 0.02 0.04 0.04 0.04 0.02 0.02 0.04 0.03 0.02 0.01 0.00 0.00 0.00 0.00 0.00 0.00 0.00 0.00 0.00 0.00 0.00 0.00 0.00 0.00
0.00 0.00 0.00 0.00 0.00 0.00 0.00 0.00 0.01 0.01 0.02 0.01 0.01 0.02 0.05 0.06 0.07 0.05 0.05 0.03 0.02 0.01 0.00 0.00 0.00 0.00 0.00 0.00 0.00 0.00 0.00 0.00
0.00 0.00 0.00 0.00 0.00 0.00 0.01 0.01 0.03 0.03 0.02 0.01 0.01 0.05 0.09 0.11 0.12 0.11 0.08 0.05 0.02 0.01 0.00 0.00 0.00 0.00 0.00 0.00 0.00 0.00 0.00 0.00
0.00 0.00 0.00 0.00 0.00 0.00 0.00 0.00 0.00 0.02 0.07 0.04 0.02 0.05 0.10 0.11 0.10 0.12 0.11 0.06 0.02 0.00 0.00 0.00 0.00 0.00 0.00 0.00 0.00 0.00 0.00 0.00
0.00 0.01 0.01 0.00 0.00 0.00 0.00 0.00 0.00 0.00 0.02 0.05 0.04 0.05 0.12 0.12 0.09 0.09 0.10 0.08 0.04 0.03 0.01 0.00 0.00 0.00 0.00 0.00 0.00 0.00 0.00 0.00

GFSFLT1_prec_precacc24_183.txt.gz
Total_Precipitation_Accumulation
0.00 0.00 0.00 0.00 0.00 0.00 0.00 0.00 0.02 0.03 0.02 0.01 0.01 0.01 0.00 0.01 0.00 0.01 0.00 0.00 0.00 0.00 0.00 0.00 0.00 0.00 0.00 0.00 0.00 0.00 0.00 0.00
0.00 0.00 0.00 0.00 0.00 0.00 0.00 0.01 0.01 0.01 0.00 0.00 0.01 0.03 0.02 0.01 0.00 0.00 0.00 0.00 0.00 0.00 0.00 0.00 0.00 0.00 0.00 0.00 0.00 0.00 0.00 0.00
0.00 0.00 0.00 0.00 0.00 0.00 0.00 0.00 0.00 0.01 0.01 0.02 0.03 0.04 0.03 0.01 0.00 0.00 0.00 0.00 0.00 0.00 0.00 0.00 0.00 0.00 0.00 0.00 0.00 0.00 0.00 0.00
0.00 0.00 0.00 0.00 0.00 0.00 0.00 0.00 0.00 0.00 0.01 0.01 0.03 0.02 0.01 0.00 0.00 0.00 0.00 0.00 0.00 0.00 0.00 0.00 0.00 0.00 0.00 0.00 0.00 0.00 0.00 0.00
0.00 0.00 0.00 0.00 0.00 0.00 0.00 0.00 0.00 0.00 0.00 0.00 0.02 0.03 0.02 0.01 0.01 0.00 0.00 0.00 0.00 0.00 0.00 0.00 0.00 0.00 0.00 0.00 0.00 0.00 0.00 0.00
0.00 0.00 0.00 0.00 0.00 0.00 0.00 0.00 0.00 0.00 0.00 0.02 0.05 0.05 0.03 0.02 0.01 0.00 0.00 0.00 0.00 0.00 0.00 0.00 0.00 0.00 0.00 0.00 0.00 0.00 0.00 0.00
0.00 0.00 0.00 0.00 0.00 0.00 0.00 0.01 0.03 0.03 0.03 0.05 0.09 0.07 0.06 0.03 0.01 0.00 0.00 0.00 0.00 0.00 0.00 0.00 0.00 0.00 0.00 0.00 0.00 0.00 0.00 0.00
0.00 0.00 0.00 0.00 0.00 0.00 0.00 0.01 0.05 0.08 0.06 0.08 0.08 0.06 0.08 0.08 0.04 0.01 0.00 0.00 0.00 0.00 0.00 0.00 0.00 0.00 0.00 0.00 0.00 0.00 0.00 0.00
0.00 0.00 0.00 0.00 0.00 0.00 0.00 0.01 0.06 0.11 0.10 0.10 0.09 0.07 0.07 0.07 0.05 0.02 0.01 0.01 0.02 0.01 0.01 0.00 0.00 0.00 0.00 0.00 0.00 0.00 0.00 0.00
0.00 0.00 0.00 0.00 0.00 0.00 0.01 0.05 0.09 0.13 0.15 0.14 0.15 0.17 0.20 0.13 0.08 0.09 0.06 0.03 0.03 0.03 0.01 0.01 0.00 0.00 0.00 0.00 0.00 0.00 0.00 0.00
0.00 0.00 0.00 0.00 0.00 0.01 0.05 0.06 0.08 0.11 0.12 0.14 0.17 0.21 0.22 0.21 0.19 0.21 0.20 0.22 0.20 0.12 0.06 0.02 0.00 0.00 0.00 0.00 0.00 0.00 0.00 0.00
0.00 0.00 0.00 0.00 0.00 0.02 0.04 0.05 0.07 0.10 0.13 0.18 0.25 0.27 0.24 0.26 0.27 0.33 0.38 0.37 0.30 0.17 0.09 0.05 0.00 0.00 0.00 0.00 0.00 0.00 0.00 0.00
0.00 0.00 0.01 0.01 0.00 0.01 0.03 0.05 0.10 0.12 0.20 0.32 0.46 0.56 0.58 0.54 0.46 0.43 0.36 0.24 0.15 0.07 0.03 0.02 0.01 0.00 0.00 0.00 0.00 0.00 0.00 0.00
0.04 0.04 0.06 0.07 0.06 0.05 0.03 0.05 0.13 0.16 0.22 0.25 0.31 0.47 0.51 0.53 0.56 0.48 0.37 0.30 0.21 0.11 0.04 0.01 0.00 0.00 0.00 0.00 0.00 0.00 0.00 0.00
0.05 0.06 0.08 0.10 0.12 0.15 0.07 0.02 0.03 0.08 0.10 0.15 0.24 0.29 0.30 0.32 0.30 0.26 0.24 0.25 0.22 0.08 0.02 0.00 0.00 0.00 0.00 0.00 0.00 0.00 0.00 0.00
0.01 0.01 0.02 0.03 0.04 0.09 0.14 0.12 0.05 0.03 0.05 0.09 0.14 0.22 0.32 0.35 0.33 0.28 0.21 0.12 0.07 0.03 0.01 0.00 0.00 0.00 0.00 0.00 0.00 0.00 0.00 0.00
0.00 0.00 0.00 0.00 0.01 0.01 0.03 0.10 0.18 0.18 0.04 0.04 0.12 0.21 0.27 0.29 0.35 0.31 0.21 0.11 0.04 0.02 0.01 0.00 0.00 0.00 0.00 0.00 0.00 0.00 0.00 0.00
0.00 0.00 0.00 0.00 0.00 0.00 0.00 0.01 0.03 0.11 0.19 0.16 0.11 0.23 0.25 0.26 0.21 0.19 0.18 0.11 0.04 0.01 0.01 0.02 0.00 0.00 0.00 0.00 0.00 0.00 0.00 0.00
0.00 0.01 0.02 0.02 0.01 0.00 0.00 0.00 0.00 0.00 0.03 0.10 0.14 0.19 0.25 0.19 0.13 0.11 0.12 0.09 0.06 0.04 0.02 0.03 0.03 0.01 0.01 0.00 0.00 0.00 0.00 0.00

GFSFLT1_prec_precacc24_186.txt.gz
Total_Precipitation_Accumulation
0.00 0.00 0.00 0.00 0.00 0.00 0.00 0.00 0.02 0.03 0.02 0.01 0.01 0.01 0.00 0.01 0.01 0.01 0.00 0.00 0.00 0.00 0.00 0.00 0.00 0.00 0.00 0.00 0.00 0.00 0.00 0.00
0.00 0.00 0.00 0.00 0.00 0.00 0.00 0.01 0.01 0.01 0.01 0.00 0.01 0.03 0.02 0.01 0.02 0.01 0.00 0.00 0.00 0.00 0.00 0.00 0.00 0.00 0.00 0.00 0.00 0.00 0.00 0.00
0.00 0.00 0.00 0.00 0.00 0.00 0.00 0.00 0.00 0.01 0.01 0.02 0.03 0.04 0.03 0.01 0.01 0.01 0.00 0.00 0.00 0.00 0.00 0.00 0.00 0.00 0.00 0.00 0.00 0.00 0.00 0.00
0.00 0.00 0.00 0.00 0.00 0.00 0.00 0.00 0.00 0.00 0.01 0.01 0.03 0.03 0.02 0.01 0.01 0.00 0.00 0.00 0.01 0.00 0.01 0.00 0.00 0.00 0.00 0.00 0.00 0.00 0.00 0.00
0.00 0.00 0.00 0.00 0.00 0.00 0.00 0.00 0.00 0.00 0.00 0.00 0.02 0.03 0.02 0.01 0.01 0.02 0.02 0.02 0.01 0.00 0.00 0.00 0.00 0.00 0.00 0.00 0.00 0.00 0.00 0.00
0.00 0.00 0.00 0.00 0.00 0.00 0.00 0.00 0.00 0.00 0.00 0.02 0.05 0.05 0.03 0.03 0.02 0.03 0.02 0.02 0.01 0.00 0.00 0.00 0.00 0.00 0.00 0.00 0.00 0.00 0.00 0.00
0.00 0.00 0.00 0.00 0.00 0.00 0.00 0.01 0.03 0.03 0.03 0.05 0.09 0.07 0.06 0.04 0.02 0.02 0.03 0.03 0.02 0.01 0.00 0.00 0.00 0.00 0.00 0.00 0.00 0.00 0.00 0.00
0.00 0.00 0.00 0.00 0.00 0.00 0.00 0.01 0.05 0.08 0.06 0.08 0.08 0.06 0.08 0.09 0.08 0.08 0.06 0.06 0.03 0.01 0.00 0.00 0.00 0.00 0.00 0.01 0.01 0.00 0.00 0.00
0.00 0.00 0.00 0.00 0.00 0.00 0.00 0.01 0.06 0.11 0.10 0.10 0.09 0.08 0.07 0.07 0.06 0.05 0.05 0.06 0.07 0.05 0.03 0.02 0.01 0.00 0.00 0.00 0.01 0.01 0.00 0.00
0.00 0.00 0.00 0.00 0.00 0.00 0.01 0.05 0.09 0.13 0.15 0.14 0.15 0.17 0.20 0.13 0.09 0.13 0.14 0.11 0.07 0.06 0.06 0.07 0.02 0.00 0.00 0.00 0.00 0.00 0.00 0.00
0.00 0.00 0.00 0.00 0.00 0.01 0.05 0.07 0.09 0.12 0.12 0.14 0.17 0.21 0.23 0.22 0.21 0.27 0.28 0.31 0.29 0.22 0.13 0.06 0.02 0.00 0.00 0.00 0.00 0.00 0.00 0.00
0.00 0.00 0.00 0.00 0.00 0.02 0.04 0.05 0.07 0.12 0.15 0.20 0.26 0.28 0.25 0.27 0.30 0.36 0.46 0.52 0.42 0.32 0.26 0.23 0.15 0.09 0.05 0.03 0.01 0.00 0.00 0.00
0.00 0.00 0.01 0.01 0.01 0.03 0.05 0.07 0.12 0.14 0.22 0.35 0.49 0.60 0.60 0.55 0.48 0.48 0.44 0.38 0.34 0.33 0.30 0.26 0.22 0.18 0.12 0.05 0.01 0.00 0.00 0.00
0.04 0.04 0.06 0.07 0.07 0.08 0.09 0.11 0.24 0.27 0.30 0.33 0.40 0.55 0.58 0.62 0.63 0.56 0.47 0.42 0.40 0.32 0.28 0.26 0.23 0.21 0.13 0.05 0.02 0.01 0.01 0.00
0.05 0.06 0.08 0.10 0.12 0.18 0.20 0.19 0.27 0.30 0.26 0.29 0.39 0.47 0.48 0.48 0.46 0.37 0.33 0.32 0.32 0.28 0.24 0.18 0.16 0.14 0.07 0.01 0.00 0.01 0.00 0.00
0.01 0.01 0.02 0.03 0.04 0.10 0.15 0.23 0.33 0.40 0.30 0.22 0.25 0.34 0.46 0.49 0.46 0.39 0.29 0.16 0.12 0.10 0.10 0.11 0.11 0.07 0.03 0.00 0.00 0.00 0.00 0.00
0.00 0.00 0.00 0.00 0.01 0.01 0.03 0.11 0.32 0.53 0.35 0.22 0.31 0.35 0.36 0.38 0.42 0.38 0.30 0.18 0.09 0.04 0.02 0.02 0.02 0.02 0.00 0.00 0.00 0.00 0.00 0.00
0.00 0.00 0.00 0.00 0.00 0.00 0.00 0.01 0.04 0.22 0.52 0.56 0.37 0.47 0.47 0.41 0.33 0.31 0.31 0.25 0.16 0.09 0.05 0.04 0.02 0.00 0.00 0.00 0.00 0.00 0.00 0.00
0.00 0.01 0.02 0.02 0.01 0.00 0.00 0.00 0.01 0.00 0.05 0.25 0.58 0.60 0.57 0.47 0.37 0.27 0.22 0.20 0.19 0.18 0.12 0.09 0.05 0.02 0.01 0.00 0.00 0.00 0.00 0.00

GFSFLT1_prec_precacc24_189.txt.gz
Total_Precipitation_Accumulation
0.00 0.00 0.00 0.00 0.00 0.00 0.00 0.00 0.02 0.03 0.02 0.01 0.01 0.02 0.01 0.01 0.01 0.04 0.07 0.01 0.00 0.00 0.00 0.00 0.00 0.00 0.00 0.00 0.00 0.00 0.00 0.00
0.00 0.00 0.00 0.00 0.00 0.00 0.00 0.01 0.01 0.01 0.01 0.01 0.01 0.03 0.02 0.02 0.06 0.08 0.08 0.05 0.02 0.00 0.00 0.00 0.00 0.00 0.00 0.00 0.00 0.00 0.00 0.00
0.00 0.00 0.00 0.00 0.00 0.00 0.00 0.00 0.00 0.01 0.01 0.02 0.03 0.04 0.03 0.02 0.03 0.03 0.03 0.03 0.04 0.02 0.00 0.00 0.00 0.00 0.00 0.00 0.00 0.00 0.00 0.00
0.00 0.00 0.00 0.00 0.00 0.00 0.00 0.00 0.00 0.00 0.01 0.01 0.03 0.03 0.03 0.03 0.02 0.02 0.04 0.03 0.04 0.04 0.03 0.02 0.02 0.00 0.00 0.00 0.00 0.00 0.00 0.00
0.00 0.00 0.00 0.00 0.00 0.00 0.00 0.00 0.00 0.00 0.00 0.00 0.02 0.03 0.02 0.02 0.01 0.03 0.04 0.05 0.05 0.05 0.04 0.03 0.03 0.01 0.00 0.00 0.00 0.00 0.00 0.00
0.00 0.00 0.00 0.00 0.00 0.00 0.00 0.00 0.00 0.00 0.01 0.02 0.05 0.05 0.03 0.03 0.02 0.03 0.03 0.06 0.06 0.06 0.04 0.02 0.02 0.01 0.00 0.00 0.00 0.00 0.00 0.00
0.00 0.00 0.00 0.00 0.00 0.00 0.00 0.01 0.03 0.03 0.04 0.06 0.09 0.07 0.06 0.04 0.02 0.02 0.03 0.05 0.07 0.06 0.05 0.03 0.02 0.01 0.00 0.01 0.00 0.00 0.00 0.00
0.00 0.00 0.00 0.00 0.00 0.00 0.00 0.01 0.05 0.08 0.08 0.11 0.10 0.07 0.08 0.09 0.08 0.08 0.07 0.07 0.07 0.07 0.08 0.05 0.04 0.02 0.01 0.01 0.01 0.01 0.01 0.01
0.00 0.00 0.00 0.00 0.00 0.00 0.00 0.01 0.06 0.11 0.11 0.12 0.10 0.09 0.08 0.08 0.07 0.05 0.05 0.07 0.10 0.10 0.09 0.07 0.04 0.01 0.01 0.01 0.01 0.01 0.01 0.01
0.00 0.00 0.00 0.00 0.00 0.00 0.01 0.05 0.09 0.13 0.16 0.15 0.16 0.19 0.23 0.14 0.10 0.14 0.14 0.12 0.09 0.10 0.10 0.11 0.09 0.07 0.05 0.04 0.03 0.01 0.00 0.01
0.00 0.00 0.00 0.00 0.00 0.01 0.05 0.07 0.09 0.12 0.14 0.16 0.22 0.27 0.28 0.25 0.22 0.28 0.29 0.34 0.34 0.30 0.20 0.12 0.07 0.04 0.03 0.02 0.02 0.01 0.00 0.00
0.00 0.00 0.00 0.00 0.00 0.02 0.04 0.05 0.07 0.12 0.16 0.24 0.35 0.40 0.37 0.37 0.34 0.40 0.48 0.55 0.48 0.44 0.41 0.35 0.27 0.15 0.07 0.04 0.02 0.02 0.01 0.01
0.00 0.00 0.01 0.01 0.01 0.03 0.05 0.07 0.13 0.15 0.23 0.37 0.53 0.66 0.70 0.65 0.57 0.54 0.50 0.44 0.46 0.49 0.49 0.47 0.42 0.34 0.22 0.15 0.11 0.08 0.05 0.04
0.04 0.04 0.06 0.07 0.07 0.08 0.09 0.11 0.24 0.30 0.35 0.39 0.47 0.65 0.68 0.76 0.76 0.68 0.57 0.53 0.50 0.44 0.45 0.46 0.44 0.47 0.46 0.39 0.26 0.17 0.13 0.09
0.05 0.06 0.08 0.10 0.12 0.18 0.20 0.19 0.27 0.34 0.39 0.47 0.56 0.59 0.60 0.66 0.69 0.59 0.53 0.51 0.46 0.39 0.35 0.30 0.27 0.27 0.23 0.21 0.22 0.19 0.10 0.04
0.01 0.01 0.02 0.03 0.04 0.10 0.15 0.23 0.34 0.46 0.46 0.46 0.50 0.56 0.62 0.62 0.60 0.54 0.44 0.29 0.22 0.17 0.16 0.19 0.18 0.14 0.11 0.07 0.04 0.02 0.01 0.00
0.00 0.00 0.00 0.00 0.01 0.01 0.03 0.11 0.32 0.56 0.51 0.58 0.63 0.59 0.55 0.52 0.54 0.50 0.41 0.29 0.16 0.12 0.11 0.11 0.09 0.07 0.06 0.04 0.01 0.01 0.00 0.00
0.00 0.00 0.00 0.00 0.00 0.01 0.00 0.01 0.04 0.23 0.58 0.72 0.66 0.83 0.90 0.64 0.51 0.51 0.57 0.44 0.31 0.25 0.20 0.20 0.19 0.14 0.07 0.02 0.00 0.00 0.00 0.00
0.00 0.01 0.02 0.02 0.02 0.00 0.00 0.00 0.01 0.01 0.07 0.31 0.77 0.97 1.04 1.01 0.73 0.54 0.53 0.60 0.61 0.47 0.39 0.33 0.23 0.18 0.09 0.02 0.01 0.00 0.00 0.00

GFSFLT1_prec_precacc24_192.txt.gz
Total_Precipitation_Accumulation
0.00 0.00 0.00 0.00 0.00 0.00 0.00 0.00 0.02 0.03 0.03 0.02 0.02 0.03 0.03 0.02 0.03 0.05 0.09 0.05 0.02 0.01 0.01 0.00 0.00 0.00 0.00 0.00 0.00 0.00 0.00 0.00
0.00 0.00 0.00 0.00 0.00 0.00 0.00 0.01 0.01 0.02 0.01 0.01 0.02 0.04 0.03 0.03 0.06 0.09 0.08 0.07 0.04 0.02 0.01 0.00 0.00 0.00 0.00 0.00 0.00 0.00 0.00 0.00
0.00 0.00 0.00 0.00 0.00 0.00 0.00 0.00 0.00 0.03 0.03 0.02 0.03 0.04 0.03 0.02 0.03 0.04 0.04 0.04 0.05 0.05 0.03 0.01 0.01 0.01 0.00 0.00 0.00 0.00 0.00 0.00
0.00 0.00 0.00 0.00 0.00 0.00 0.00 0.00 0.00 0.00 0.02 0.03 0.05 0.03 0.03 0.03 0.03 0.03 0.04 0.03 0.05 0.07 0.07 0.04 0.06 0.04 0.00 0.00 0.00 0.00 0.00 0.00
0.00 0.00 0.00 0.00 0.00 0.00 0.00 0.00 0.00 0.00 0.01 0.04 0.06 0.05 0.03 0.02 0.02 0.03 0.04 0.05 0.06 0.07 0.08 0.05 0.06 0.06 0.02 0.01 0.01 0.01 0.00 0.00
0.00 0.00 0.00 0.00 0.00 0.00 0.00 0.00 0.00 0.00 0.01 0.04 0.08 0.07 0.06 0.05 0.02 0.03 0.03 0.06 0.07 0.07 0.06 0.04 0.05 0.04 0.03 0.03 0.03 0.01 0.01 0.01
0.00 0.00 0.00 0.00 0.00 0.00 0.00 0.01 0.03 0.03 0.04 0.07 0.13 0.09 0.11 0.09 0.05 0.03 0.03 0.05 0.07 0.06 0.07 0.07 0.06 0.04 0.03 0.03 0.03 0.01 0.00 0.01
0.00 0.00 0.00 0.00 0.00 0.00 0.00 0.01 0.05 0.08 0.08 0.11 0.11 0.09 0.13 0.14 0.13 0.14 0.09 0.08 0.08 0.09 0.10 0.10 0.11 0.06 0.05 0.04 0.04 0.03 0.02 0.03
0.00 0.00 0.00 0.00 0.00 0.00 0.00 0.01 0.06 0.11 0.11 0.12 0.10 0.09 0.10 0.12 0.11 0.11 0.09 0.09 0.11 0.11 0.13 0.11 0.09 0.07 0.05 0.06 0.05 0.03 0.01 0.02
0.00 0.00 0.00 0.00 0.00 0.00 0.01 0.05 0.09 0.13 0.16 0.15 0.16 0.19 0.24 0.16 0.13 0.17 0.17 0.14 0.10 0.11 0.13 0.16 0.13 0.12 0.10 0.08 0.07 0.05 0.02 0.01
0.00 0.00 0.00 0.00 0.00 0.01 0.05 0.07 0.09 0.12 0.14 0.16 0.22 0.27 0.28 0.28 0.28 0.35 0.33 0.37 0.37 0.33 0.26 0.19 0.14 0.12 0.12 0.11 0.08 0.06 0.07 0.07
0.00 0.00 0.00 0.00 0.00 0.02 0.04 0.05 0.07 0.12 0.16 0.24 0.35 0.40 0.37 0.41 0.46 0.51 0.58 0.64 0.57 0.52 0.50 0.45 0.34 0.24 0.20 0.15 0.12 0.07 0.04 0.02
0.00 0.00 0.01 0.01 0.01 0.03 0.05 0.07 0.13 0.15 0.23 0.37 0.53 0.67 0.72 0.73 0.70 0.77 0.85 0.78 0.68 0.61 0.60 0.56 0.50 0.45 0.37 0.26 0.20 0.16 0.10 0.07
0.04 0.04 0.06 0.07 0.07 0.08 0.09 0.11 0.24 0.30 0.35 0.39 0.47 0.65 0.70 0.81 0.88 0.85 0.83 1.01 1.14 0.90 0.61 0.55 0.52 0.59 0.63 0.56 0.40 0.29 0.23 0.19
0.05 0.06 0.08 0.10 0.12 0.18 0.20 0.19 0.27 0.34 0.39 0.47 0.56 0.61 0.65 0.73 0.76 0.72 0.70 0.76 0.82 0.79 0.62 0.47 0.41 0.40 0.37 0.38 0.42 0.43 0.36 0.28
0.01 0.01 0.02 0.03 0.04 0.09 0.15 0.23 0.34 0.46 0.46 0.46 0.51 0.61 0.73 0.76 0.74 0.67 0.59 0.45 0.35 0.36 0.39 0.35 0.30 0.21 0.17 0.16 0.19 0.26 0.29 0.31
0.00 0.00 0.00 0.00 0.01 0.01 0.03 0.11 0.32 0.56 0.51 0.58 0.63 0.62 0.66 0.72 0.78 0.67 0.57 0.46 0.31 0.23 0.21 0.18 0.15 0.11 0.12 0.13 0.15 0.21 0.29 0.29
0.00 0.00 0.00 0.00 0.01 0.01 0.01 0.01 0.04 0.23 0.58 0.73 0.66 0.87 1.04 0.81 0.67 0.67 0.71 0.57 0.48 0.38 0.29 0.29 0.31 0.27 0.25 0.19 0.17 0.18 0.19 0.16
0.00 0.01 0.02 0.02 0.02 0.00 0.00 0.00 0.01 0.01 0.07 0.31 0.78 1.03 1.17 1.22 0.93 0.69 0.72 0.82 0.83 0.73 0.60 0.53 0.44 0.39 0.38 0.31 0.25 0.18 0.13 0.07